STARLINK-30928, 58452

Orbit data source: Space-Track

STARLINK-30928, 58452 is a payload satellite owned by SpaceX/Seattle (US) in LEO that was launched on Tue, 28 Nov 2023 UTC via an FALCON 9 launch vehicle from the Air Force Eastern Test Range (AFETR). Payload-class satellites include a variety of spacecraft equipped with specific instruments for various scientific and technological missions. These include communications satellites like Starlink; space stations such as the ISS; scientific satellites like the Hubble; Earth observation satellites from companies like Planet Labs, Umbra, and HawkEye 360; GPS; miniature CubeSats for education and research; and military/defense satellites.

Loading next visibility...
Identifier
58452, 2023-183R
Orbit
LEO
Country
Flag of USUS
Related business
Manufacturer
SpaceX/Seattle
Mission
Operational Commercial Communications
Bus & Motor
STARLINK V2M, Unknown motor
Mass
730 kg wet, ~700 kg dry
Launch date (UTC)
2023-11-28 (3 years ago)
Launch vehicle
FALCON 9
Launch site
Air Force Eastern Test Range (AFETR)
Object type
Payload
Rocket body
Debris
Shape & HBR
Box + 2 Pan, 17.7 m
Radar Cross Section
33.884 m², Large (>1 m²)

Expand to show TLE details & history
Last TLE update: 2 days ago

TLE from 2 days ago
0 STARLINK-30928
1 58452U 23183R   26171.33547889 -.00002456  00000-0 -79790-4 0  9990
2 58452  43.0008 181.8455 0001353 277.8258  82.2440 15.27560369142421
Epoch: 2026-06-20T08:03Z
TLE epoch observation values (Epoch: 2026-06-20T08:03:05.376Z)
Latitude
-0°
Longitude
152.52152°
Altitude
482.758 km
Speed
7.626 km/s
True Right ascension
12h 07m 22s
True Declination
0° 00' 00"
Sunlit
Object was in daylight at epoch
Visualization orbit readout
Latitude
Unknown
Longitude
Unknown
Altitude
Unknown
Speed
Unknown
Apparent Right ascension
Unknown
Apparent Declination
Unknown
Sunlit
N/A
Visualization observer readout
Local Sidereal Time
21:30:05
Azimuth
Unknown
Elevation
Unknown
Doppler factor
Unknown
Orbital elements
Apogee altitude
485.981 km
Perigee altitude
484.124 km
Semi-major axis
6,863.19 km
Eccentricity
0.00014
Inclination
43.0008°
RAAN
181.8455°
Arg. of periapsis
277.8258°
True anomaly
82.25936°
Mean anomaly
82.244°
Eccentric anomaly
82.25168°
Mean motion
3.81728 °/min
Orbital period
94.31 mins
BSTAR
-0.00007979
Loading maneuver chart data...
Computing Atmospheric mass density...
Loading historical data...
Loading historical data...
Loading historical data...
Loading historical data...
Loading historical data...
Loading historical data...
Loading historical data...

Documentation

Showing up to 5 results
|